User: anonymous   Login
Location: Unspecified
(0.0000°N, 0.0000°E)
Time: 13:44:26
(UTC+00:00)
Language:

AEHF 4 (USA 288) - Orbit

View from above orbital plane
View from above orbital plane
View from above satellite
View from above satellite

Ground track
Ground track

The orbit data is extracted from the following two-line orbital elements,

1 43651U 18079A   20048.15359241  .00000117  00000-0  00000+0 0  9996
2 43651   4.1168 311.1745 0003324   1.0383  99.6731  1.00277222  5104
Epoch (UTC): 17 February 2020 03:41:10
Eccentricity: 0.0003324
inclination: 4.1168°
perigee height: 35770 km
apogee height: 35799 km
right ascension of ascending node: 311.1745°
argument of perigee: 1.0383°
revolutions per day: 1.00277222
mean anomaly at epoch: 99.6731°
orbit number at epoch: 510

The dashed part of the orbit path shows where the satellite is in the earth's shadow,  

DLR